Location: Newark
(41.6500°N, 71.4833°W)
Time: 22:09:09
(UTC+00:00)

deb Explorer IX - Pass Details

Date: 31 January 2020
Orbit: 549 x 1099 km, 38.8° (Epoch: 18 February)

Event Time Altitude Azimuth Distance (km) Brightness Sun altitude
Rises 02:06:30 0° 261° (W) 3,596 ? -46.1°
Reaches altitude 10° 02:09:00 10° 259° (W) 2,722 ? -46.5°
Enters shadow 02:09:45 14° 258° (WSW) 2,470 ? -46.6°
Maximum altitude 02:15:40 71° 177° (S) 1,110 - -47.7°
Drops below altitude 10° 02:22:55 10° 95° (E) 2,944 - -48.9°
Sets 02:25:44 0° 93° (E) 3,906 - -49.4°
